Time,TemperatureF,DewpointF,PressureIn,WindDirection,WindDirectionDegrees,WindSpeedMPH,WindSpeedGustMPH,Humidity,HourlyPrecipIn,Conditions,Clouds,dailyrainin,SolarRadiationWatts/m^2,SoftwareType,DateUTC
2013-08-19 00:01:00,84.0,39.0,-100.00,ESE,117,3.0,8.0,20,0.00,,,0.00,0.000000,,2013-08-19 07:01:00,
2013-08-19 10:02:00,93.0,50.0,-100.00,WSW,245,3.0,7.0,23,-99.99,,,0.00,498.000000,,2013-08-19 17:02:00,
2013-08-19 10:49:00,93.0,50.0,-100.00,WSW,245,3.0,7.0,23,-99.99,,,0.00,498.000000,,2013-08-19 17:49:00,
2013-08-19 10:57:00,93.0,50.0,-100.00,WSW,245,3.0,7.0,23,-99.99,,,0.00,498.000000,,2013-08-19 17:57:00,
2013-08-19 11:02:00,94.0,48.0,-100.00,WSW,240,4.0,12.0,21,0.00,,,0.00,677.000000,,2013-08-19 18:02:00,
2013-08-19 11:50:00,-999.0,-99.9,-100.00,WSW,240,4.0,12.0,21,0.00,,,0.00,677.000000,,2013-08-19 18:50:00,
2013-08-19 12:00:00,-999.0,-99.9,-100.00,WSW,240,4.0,12.0,21,0.00,,,0.00,677.000000,,2013-08-19 19:00:00,
2013-08-19 12:02:00,95.0,48.0,-100.00,SW,224,6.0,11.0,20,0.00,,,0.00,796.000000,,2013-08-19 19:02:00,
2013-08-19 12:30:00,-999.0,-99.9,-100.00,SW,224,6.0,11.0,20,0.00,,,0.00,796.000000,,2013-08-19 19:30:00,
2013-08-19 12:50:00,95.0,48.0,-100.00,SW,224,6.0,11.0,20,0.00,,,0.00,796.000000,,2013-08-19 19:50:00,
2013-08-19 12:59:00,95.0,48.0,-100.00,SW,224,6.0,11.0,20,0.00,,,0.00,796.000000,,2013-08-19 19:59:00,
2013-08-19 13:02:00,99.0,51.0,-100.00,West,264,5.0,12.0,20,0.00,,,0.00,842.000000,,2013-08-19 20:02:00,
2013-08-19 13:30:00,99.0,-99.9,-100.00,West,264,5.0,12.0,20,0.00,,,0.00,842.000000,,2013-08-19 20:30:00,
2013-08-19 13:40:00,99.0,51.0,-100.00,West,264,5.0,12.0,20,0.00,,,0.00,842.000000,,2013-08-19 20:40:00,
2013-08-19 13:50:00,99.0,51.0,-100.00,West,264,5.0,12.0,20,0.00,,,0.00,842.000000,,2013-08-19 20:50:00,
2013-08-19 14:00:00,-999.0,-99.9,-100.00,West,264,5.0,12.0,-999,-99.99,,,-99.99,842.000000,,2013-08-19 21:00:00,
2013-08-19 14:02:00,99.0,48.0,-100.00,SW,225,7.0,14.0,18,0.00,,,0.00,858.000000,,2013-08-19 21:02:00,
2013-08-19 14:46:00,99.0,48.0,-100.00,SW,225,7.0,14.0,18,0.00,,,0.00,858.000000,,2013-08-19 21:46:00,
2013-08-19 14:54:00,99.0,48.0,-100.00,SW,225,7.0,14.0,18,0.00,,,0.00,858.000000,,2013-08-19 21:54:00,
2013-08-19 15:02:00,103.0,50.0,-100.00,West,266,4.0,12.0,17,0.00,,,0.00,808.000000,,2013-08-19 22:02:00,
2013-08-19 15:44:00,103.0,50.0,-100.00,West,266,4.0,12.0,17,0.00,,,0.00,808.000000,,2013-08-19 22:44:00,
2013-08-19 15:54:00,103.0,50.0,-100.00,West,266,4.0,12.0,17,0.00,,,0.00,808.000000,,2013-08-19 22:54:00,
2013-08-19 16:02:00,104.0,47.0,-100.00,West,262,5.0,10.0,15,0.00,,,0.00,641.000000,,2013-08-19 23:02:00,
2013-08-19 16:48:00,104.0,47.0,-100.00,West,262,5.0,10.0,15,0.00,,,0.00,641.000000,,2013-08-19 23:48:00,
2013-08-19 16:55:00,104.0,47.0,-100.00,West,262,5.0,10.0,15,0.00,,,0.00,641.000000,,2013-08-19 23:55:00,
2013-08-19 17:02:00,101.0,45.0,-100.00,SW,235,7.0,18.0,15,0.00,,,0.00,582.000000,,2013-08-20 00:02:00,
2013-08-19 17:24:00,101.0,45.0,-100.00,SW,235,7.0,18.0,15,0.00,,,0.00,582.000000,,2013-08-20 00:24:00,
2013-08-19 17:32:00,101.0,45.0,-100.00,SW,235,7.0,18.0,15,0.00,,,0.00,582.000000,,2013-08-20 00:32:00,
2013-08-19 17:42:00,101.0,45.0,-100.00,SW,235,7.0,18.0,15,0.00,,,0.00,582.000000,,2013-08-20 00:42:00,
2013-08-19 17:52:00,101.0,45.0,-100.00,SW,235,7.0,18.0,15,0.00,,,0.00,582.000000,,2013-08-20 00:52:00,
2013-08-19 18:02:00,97.0,46.0,-100.00,WNW,283,4.0,15.0,18,0.00,,,0.00,311.000000,,2013-08-20 01:02:00,
2013-08-19 18:42:00,97.0,46.0,-100.00,WNW,283,4.0,15.0,18,0.00,,,0.00,311.000000,,2013-08-20 01:42:00,
2013-08-19 18:52:00,97.0,46.0,-100.00,WNW,283,4.0,15.0,18,0.00,,,0.00,311.000000,,2013-08-20 01:52:00,
2013-08-19 19:02:00,90.0,46.0,-100.00,East,89,4.0,11.0,22,0.00,,,0.00,64.000000,,2013-08-20 02:02:00,
2013-08-19 19:42:00,90.0,46.0,-100.00,East,89,4.0,11.0,22,0.00,,,0.00,64.000000,,2013-08-20 02:42:00,
2013-08-19 19:52:00,90.0,46.0,-100.00,East,89,4.0,11.0,22,0.00,,,0.00,64.000000,,2013-08-20 02:52:00,
2013-08-19 20:02:00,83.0,49.0,-100.00,ESE,107,5.0,17.0,31,0.00,,,0.00,6.000000,,2013-08-20 03:02:00,
2013-08-19 20:43:00,83.0,49.0,-100.00,ESE,107,5.0,17.0,31,0.00,,,0.00,6.000000,,2013-08-20 03:43:00,
2013-08-19 20:54:00,83.0,49.0,-100.00,ESE,107,5.0,17.0,31,0.00,,,0.00,6.000000,,2013-08-20 03:54:00,
2013-08-19 21:02:00,77.0,51.0,-100.00,East,95,7.0,17.0,40,0.00,,,0.00,0.000000,,2013-08-20 04:02:00,
2013-08-19 21:43:00,77.0,51.0,-100.00,East,95,7.0,17.0,40,0.00,,,0.00,0.000000,,2013-08-20 04:43:00,
2013-08-19 21:53:00,77.0,51.0,-100.00,East,95,7.0,17.0,40,0.00,,,0.00,0.000000,,2013-08-20 04:53:00,
2013-08-19 22:43:00,79.0,50.0,-100.00,NNE,14,4.0,10.0,36,0.00,,,0.00,0.000000,,2013-08-20 05:43:00,
2013-08-19 22:52:00,79.0,50.0,-100.00,NNE,14,4.0,10.0,36,0.00,,,0.00,0.000000,,2013-08-20 05:52:00,
2013-08-19 23:01:00,79.0,50.0,-100.00,NNE,14,4.0,10.0,36,0.00,,,0.00,0.000000,,2013-08-20 06:01:00,
2013-08-19 23:42:00,82.0,47.0,-100.00,NE,40,5.0,9.0,30,0.00,,,0.00,0.000000,,2013-08-20 06:42:00,
2013-08-19 23:52:00,82.0,47.0,-100.00,NE,40,5.0,9.0,30,0.00,,,0.00,0.000000,,2013-08-20 06:52:00,